• In Uzbekistan
  • List of Countries
  • For 7 days
  • Water Temperature
  • Satellite Maps
  • Weather Map
  • Weather Widgets
  • user-avatar
    Login

    Hourly Weather Melbourne

    Today, 18 November, Saturday

    Time Temperature Precipitation Wind Pressure Humidity
    00:00 +16°C° 0 mm 1 mps 759 mmHg 84%
    01:00 +16°C° 0 mm 1 mps 759 mmHg 85%
    02:00 +16°C° 0 mm 1 mps 759 mmHg 86%
    03:00 +15°C° 0 mm 1 mps 759 mmHg 87%
    04:00 +15°C° 0 mm 1 mps 759 mmHg 87%
    05:00 +16°C° 0.1 mm 1 mps 760 mmHg 84%
    06:00 +18°C° 0.1 mm 2 mps 760 mmHg 81%
    07:00 +19°C° 0.1 mm 2 mps 761 mmHg 78%
    08:00 +21°C° 0 mm 2 mps 761 mmHg 69%
    09:00 +25°C° 0 mm 2 mps 761 mmHg 61%
    10:00 +27°C° 0 mm 2 mps 761 mmHg 52%
    11:00 +28°C° 0.2 mm 2 mps 760 mmHg 53%
    12:00 +28°C° 0.2 mm 2 mps 760 mmHg 54%
    13:00 +28°C° 0.2 mm 2 mps 760 mmHg 55%
    14:00 +28°C° 0.1 mm 2 mps 760 mmHg 55%
    15:00 +28°C° 0.1 mm 3 mps 760 mmHg 55%
    16:00 +26°C° 0 mm 4 mps 760 mmHg 65%
    17:00 +24°C° 0.9 mm 3 mps 760 mmHg 73%
    18:00 +23°C° 0.9 mm 2 mps 761 mmHg 81%
    19:00 +21°C° 0.9 mm 1 mps 761 mmHg 88%
    20:00 +20°C° 0.2 mm 2 mps 761 mmHg 90%
    21:00 +19°C° 0.2 mm 2 mps 762 mmHg 91%
    22:00 +19°C° 0 mm 1 mps 762 mmHg 91%
    23:00 +19°C° 0 mm 1 mps 762 mmHg 91%

    Tomorrow, 19 November, Sunday

    Time Temperature Precipitation Wind Pressure Humidity
    00:00 +19°C° 0 mm 1 mps 762 mmHg 91%
    01:00 +18°C° 0 mm 2 mps 762 mmHg 91%
    02:00 +18°C° 0 mm 2 mps 762 mmHg 90%
    03:00 +17°C° 0 mm 2 mps 763 mmHg 90%
    04:00 +17°C° 0 mm 3 mps 763 mmHg 89%
    05:00 +18°C° 0 mm 3 mps 763 mmHg 84%
    06:00 +19°C° 0 mm 3 mps 763 mmHg 79%
    07:00 +20°C° 0 mm 3 mps 764 mmHg 74%
    08:00 +22°C° 0 mm 3 mps 764 mmHg 66%
    09:00 +25°C° 0 mm 3 mps 764 mmHg 58%
    10:00 +27°C° 0 mm 3 mps 764 mmHg 50%
    11:00 +28°C° 0 mm 3 mps 764 mmHg 48%
    12:00 +28°C° 0 mm 3 mps 764 mmHg 46%
    13:00 +29°C° 0 mm 2 mps 764 mmHg 44%
    14:00 +29°C° 0 mm 3 mps 764 mmHg 45%
    15:00 +29°C° 0 mm 3 mps 763 mmHg 47%
    16:00 +28°C° 0 mm 4 mps 763 mmHg 48%
    17:00 +27°C° 0 mm 3 mps 763 mmHg 54%
    18:00 +25°C° 0 mm 3 mps 763 mmHg 60%
    19:00 +22°C° 0 mm 3 mps 764 mmHg 67%
    20:00 +21°C° 0 mm 3 mps 764 mmHg 70%
    21:00 +20°C° 0 mm 2 mps 764 mmHg 73%
    22:00 +19°C° 0 mm 2 mps 764 mmHg 76%
    23:00 +19°C° 0 mm 2 mps 764 mmHg 78%

    Day after tomorrow, 20 November, Monday

    Time Temperature Precipitation Wind Pressure Humidity
    00:00 +20°C° 0 mm 1 mps 764 mmHg 80%
    01:00 +19°C° 0 mm 1 mps 764 mmHg 82%
    02:00 +19°C° 0 mm 1 mps 765 mmHg 82%
    03:00 +19°C° 0 mm 1 mps 765 mmHg 82%
    04:00 +19°C° 0 mm 1 mps 765 mmHg 82%
    05:00 +19°C° 0 mm 2 mps 765 mmHg 76%
    06:00 +20°C° 0 mm 3 mps 766 mmHg 71%
    07:00 +21°C° 0 mm 3 mps 766 mmHg 66%
    08:00 +24°C° 0 mm 3 mps 766 mmHg 59%
    09:00 +26°C° 0 mm 3 mps 766 mmHg 52%
    10:00 +28°C° 0 mm 2 mps 766 mmHg 45%
    11:00 +29°C° 0 mm 2 mps 766 mmHg 43%
    12:00 +30°C° 0 mm 2 mps 765 mmHg 40%
    13:00 +31°C° 0 mm 1 mps 765 mmHg 38%
    14:00 +31°C° 0 mm 2 mps 764 mmHg 40%
    15:00 +31°C° 0 mm 2 mps 764 mmHg 42%
    16:00 +30°C° 0 mm 3 mps 763 mmHg 44%
    17:00 +28°C° 0 mm 3 mps 764 mmHg 49%
    18:00 +27°C° 0 mm 3 mps 764 mmHg 55%
    19:00 +25°C° 0 mm 3 mps 764 mmHg 61%
    20:00 +24°C° 0 mm 2 mps 764 mmHg 63%
    21:00 +23°C° 0 mm 2 mps 765 mmHg 66%
    22:00 +21°C° 0 mm 2 mps 765 mmHg 68%
    23:00 +22°C° 0 mm 1 mps 765 mmHg 68%

    21 November, Tuesday

    Time Temperature Precipitation Wind Pressure Humidity
    00:00 +21°C° 0 mm 1 mps 764 mmHg 68%
    01:00 +21°C° 0 mm 1 mps 764 mmHg 68%
    02:00 +21°C° 0 mm 1 mps 764 mmHg 68%
    03:00 +21°C° 0 mm 1 mps 764 mmHg 68%
    04:00 +20°C° 0 mm 1 mps 764 mmHg 68%
    05:00 +20°C° 0 mm 2 mps 764 mmHg 66%
    06:00 +21°C° 0 mm 3 mps 764 mmHg 65%
    07:00 +21°C° 0 mm 3 mps 765 mmHg 63%
    08:00 +24°C° 0 mm 3 mps 764 mmHg 57%
    09:00 +26°C° 0 mm 3 mps 764 mmHg 51%
    10:00 +28°C° 0 mm 3 mps 764 mmHg 45%
    11:00 +30°C° 0 mm 3 mps 764 mmHg 41%
    12:00 +31°C° 0 mm 2 mps 763 mmHg 36%
    13:00 +32°C° 0 mm 2 mps 763 mmHg 32%
    14:00 +32°C° 0 mm 2 mps 762 mmHg 34%
    15:00 +31°C° 0 mm 2 mps 762 mmHg 37%
    16:00 +30°C° 0 mm 2 mps 761 mmHg 39%
    17:00 +29°C° 0.1 mm 3 mps 762 mmHg 46%
    18:00 +27°C° 0.1 mm 3 mps 762 mmHg 53%
    19:00 +25°C° 0.1 mm 4 mps 762 mmHg 61%
    20:00 +24°C° 0 mm 3 mps 762 mmHg 64%
    21:00 +22°C° 0 mm 3 mps 762 mmHg 67%
    22:00 +21°C° 0 mm 2 mps 762 mmHg 71%
    23:00 +21°C° 0 mm 2 mps 762 mmHg 71%

    22 November, Wednesday

    Time Temperature Precipitation Wind Pressure Humidity
    00:00 +20°C° 0 mm 2 mps 761 mmHg 72%
    01:00 +21°C° 0 mm 1 mps 761 mmHg 73%
    02:00 +20°C° 0 mm 2 mps 761 mmHg 73%
    03:00 +20°C° 0 mm 2 mps 761 mmHg 72%
    04:00 +20°C° 0 mm 2 mps 761 mmHg 72%
    05:00 +20°C° 0 mm 3 mps 761 mmHg 68%
    06:00 +21°C° 0 mm 3 mps 761 mmHg 63%
    07:00 +22°C° 0 mm 4 mps 761 mmHg 59%
    08:00 +25°C° 0 mm 4 mps 761 mmHg 53%
    09:00 +27°C° 0 mm 4 mps 761 mmHg 48%
    10:00 +29°C° 0 mm 4 mps 761 mmHg 42%
    11:00 +30°C° 0 mm 4 mps 761 mmHg 38%
    12:00 +31°C° 0 mm 3 mps 760 mmHg 34%
    13:00 +33°C° 0 mm 3 mps 759 mmHg 31%
    14:00 +33°C° 0 mm 3 mps 759 mmHg 31%
    15:00 +32°C° 0 mm 2 mps 758 mmHg 31%
    16:00 +32°C° 0 mm 2 mps 758 mmHg 32%
    17:00 +30°C° 0 mm 2 mps 758 mmHg 38%
    18:00 +28°C° 0 mm 3 mps 758 mmHg 45%
    19:00 +26°C° 0 mm 3 mps 758 mmHg 52%
    20:00 +25°C° 0.1 mm 3 mps 758 mmHg 57%
    21:00 +22°C° 0.1 mm 3 mps 758 mmHg 63%
    22:00 +21°C° 0.1 mm 3 mps 759 mmHg 68%
    23:00 +21°C° 0 mm 3 mps 758 mmHg 70%

    23 November, Thursday

    Time Temperature Precipitation Wind Pressure Humidity
    00:00 +20°C° 0 mm 2 mps 758 mmHg 71%
    01:00 +20°C° 0 mm 2 mps 757 mmHg 72%
    02:00 +20°C° 0 mm 2 mps 757 mmHg 69%
    03:00 +20°C° 0 mm 2 mps 757 mmHg 66%
    04:00 +20°C° 0 mm 2 mps 757 mmHg 63%
    05:00 +21°C° 0 mm 3 mps 757 mmHg 61%
    06:00 +22°C° 0 mm 3 mps 757 mmHg 59%
    07:00 +23°C° 0 mm 4 mps 758 mmHg 57%
    08:00 +26°C° 0 mm 4 mps 758 mmHg 50%
    09:00 +28°C° 0 mm 4 mps 758 mmHg 43%
    10:00 +30°C° 0 mm 4 mps 758 mmHg 36%
    11:00 +32°C° 0 mm 4 mps 757 mmHg 33%
    12:00 +33°C° 0 mm 4 mps 757 mmHg 29%
    13:00 +35°C° 0 mm 3 mps 756 mmHg 26%
    14:00 +34°C° 0 mm 3 mps 756 mmHg 27%
    15:00 +34°C° 0 mm 2 mps 755 mmHg 28%
    16:00 +34°C° 0 mm 2 mps 755 mmHg 29%
    17:00 +31°C° 0 mm 2 mps 755 mmHg 34%
    18:00 +29°C° 0 mm 2 mps 755 mmHg 39%
    19:00 +27°C° 0 mm 2 mps 756 mmHg 44%
    20:00 +26°C° 0 mm 2 mps 756 mmHg 45%
    21:00 +26°C° 0 mm 2 mps 756 mmHg 47%
    22:00 +25°C° 0 mm 2 mps 757 mmHg 49%
    23:00 +24°C° 0 mm 2 mps 757 mmHg 52%
    Show more